{"data":{"norad_id":57262,"intl_designator":"2023-094AW","name":"STARLINK-5504","alt_names":[],"object_type":"PAYLOAD","status":"ACTIVE","operator":null,"country":"US","launch_date":"2023-07-07","launch_site_code":"AFWTR","launch_vehicle":null,"mission":null,"orbit_class":"UNKNOWN","rcs_meters":null,"size_class":null,"mass_kg":null,"dimensions":null,"purposes":["comms"],"wikipedia_slug":null,"has_3d_model":false,"image_url":null,"decayed_at":null,"tle_current":{"epoch":"2026-05-24T19:21:36.870336Z","epoch_age_seconds":84977,"freshness":"FRESH","line1":"1 57262U 23094AW  26144.80667674  .00000423  00000+0  24894-4 0  9990","line2":"2 57262  43.0025 309.7924 0001168 267.0914  92.9804 15.27573957158880","mean_motion":15.27573957,"eccentricity":0.0001168,"inclination_deg":43.0025,"raan_deg":309.7924,"arg_perigee_deg":267.0914,"mean_anomaly_deg":92.9804,"bstar":2.4894e-5,"rev_number":15888,"period_min":94.267121627814,"perigee_km":482.26580236575,"apogee_km":483.86857966477,"semimajor_km":6861.2041910153,"source":"CELESTRAK","updated_at":"2026-05-25T13:38:18.281688Z"}}}